Location: Breugny
(47.3513°N, 3.8388°E)
Time: 06:28:48
(UTC+00:00)

Daily predictions for brighter satellites

Satellite Brightness Start Highest point End
(mag) Time Altitude Azimuth Time Altitude Azimuth Time Altitude Azimuth
Cosmos 407 Rocket 3.5 19:17:51 10° SSW 19:23:09 82° ESE 19:28:27 10° NNE
SJ-6B 2.8 19:22:24 10° SSE 19:26:24 79° ENE 19:30:22 10° N
Cosmos 1862 3.7 19:23:15 10° SSW 19:27:18 72° W 19:31:23 10° N
Cosmos 1190 Rocket 4.0 19:22:07 10° SSW 19:27:22 74° ESE 19:32:41 10° NNE
NOSS 2 (A) 4.3 19:25:09 10° NNW 19:27:44 57° NE 19:30:05 10° SE
deb Kosmos-1763 4.0 19:25:05 10° S 19:28:39 60° ESE 19:32:17 10° NNE
Cosmos 1140 Rocket 3.5 19:23:58 10° SSW 19:29:12 74° ESE 19:34:27 10° NNE
FALCON 9 DEB 3.9 19:26:15 10° WSW 19:29:41 56° NNW 19:33:09 10° ENE
Resurs 1-3 4.0 19:27:20 10° SE 19:31:32 48° ENE 19:35:47 10° N
OBJECT-B 1.2 19:30:56 10° SSE 19:34:06 47° ENE 19:37:17 10° N
Cosmos 1441 Rocket 3.6 19:30:47 10° SSW 19:34:30 67° WNW 19:38:15 10° N
IRIDIUM 106 4.4 19:29:44 10° S 19:34:56 85° E 19:40:12 10° N
Cosmos 1633 Rocket 3.3 19:32:58 10° SSE 19:37:14 49° E 19:41:30 10° NNE
Cosmos 1184 Rocket 3.5 19:35:04 10° SSE 19:38:04 33° E 19:41:06 10° NNE
SL-08 RB Rocket 4.3 19:34:47 10° S 19:39:23 63° W 19:44:03 10° NNW
Cosmos 921 Rocket 3.3 19:36:49 10° N 19:40:54 46° ENE 19:44:55 10° SE
Cosmos 2123 Rocket 4.1 19:36:05 10° N 19:42:16 61° ENE 19:48:28 10° SSE
Cosmos 2239 Rocket 4.5 19:37:02 10° S 19:43:09 79° E 19:49:20 10° N
Meteor 1-27 Rocket 4.0 19:41:37 10° NNW 19:47:36 80° W 19:53:31 10° S
Cosmos 1605 Rocket 4.3 19:46:29 10° SSE 19:52:11 43° E 19:57:53 10° NNE
Okean 1 4.4 19:49:45 10° NNE 19:53:18 28° ENE 19:56:08 14° SE
Cosmos 1707 Rocket 3.9 19:49:18 10° NNW 19:53:37 67° W 19:57:54 10° S
CZ-2C R/B 2.6 19:49:15 10° NNE 19:54:28 87° WNW 19:59:43 10° SSW
NOSS 3-2 (A) 3.3 19:50:05 10° SSW 19:55:44 72° SE 20:02:14 10° NE
Cosmos 192 4.4 19:51:21 10° NNW 19:56:17 85° WSW 20:01:12 10° SSE
Cosmos 2219 Rocket 4.4 19:55:00 10° N 19:57:26 13° NNE 19:59:52 10° ENE
USA 267 4.1 19:53:08 10° ENE 19:58:30 26° SE 20:03:50 10° S
SL-16 R/B 2.7 19:56:31 10° NNW 20:02:00 46° NE 20:06:28 15° SE
SL-4 R/B 2.8 19:58:37 10° W 20:02:33 48° N 20:06:11 10° ENE
BREEZE-M DEB (TANK) 2.4 20:01:02 10° W 20:03:33 71° N 20:09:23 10° ENE
BREEZE-M DEB (TANK) 4.4 20:00:31 10° W 20:03:44 15° WSW 20:05:49 10° SSW
SL-27 R/B 3.6 20:04:28 18° SE 20:05:32 21° ESE 20:08:06 10° NE
Cosmos 2242 Rocket 4.1 20:01:50 10° N 20:06:01 40° ENE 20:09:08 16° SE
NOSS 3-2 (C) 3.4 20:00:56 10° SSW 20:06:28 55° ESE 20:12:45 10° NE
Cosmos 1470 Rocket 3.6 20:02:44 10° S 20:07:01 56° E 20:11:19 10° NNE
Sich 1 4.3 20:03:39 10° SSW 20:07:55 45° WNW 20:12:11 10° N
Cosmos 2082 Rocket 2.8 20:05:29 10° SW 20:11:07 63° WNW 20:16:46 10° NNE
BREEZE-M DEB (TANK) 2.3 20:08:14 10° W 20:11:10 53° N 20:12:31 17° ENE
Meteor 2-20 Rocket 4.5 20:08:47 10° N 20:15:00 89° W 20:21:09 10° S
Meteor 1-4 Rocket 3.8 20:14:21 10° NNW 20:17:36 39° W 20:20:50 10° SSW
ERS-1 Rocket 4.1 20:16:14 17° ESE 20:19:07 29° ENE 20:23:24 10° N
Cosmos 2322 Rocket 2.6 20:13:48 10° NNW 20:19:22 51° ENE 20:23:14 20° SE
Cosmos 1862 Rocket 3.8 20:16:59 10° NNW 20:21:26 71° W 20:25:48 10° S
Cosmos 1850 Rocket 4.1 20:18:32 10° S 20:23:41 55° ESE 20:28:49 10° NNE
Meteor 1-25 Rocket 4.1 20:20:01 10° S 20:25:35 79° E 20:31:15 10° NNE
Cosmos 841 Rocket 4.1 20:21:54 10° NNW 20:26:54 43° ENE 20:29:56 22° ESE
SPOT 1/Viking Rocket 3.9 20:23:32 20° SE 20:26:56 49° ENE 20:31:58 10° N
USA 32 4.0 20:23:04 10° S 20:28:17 84° E 20:33:33 10° N
Cosmos 2360 Rocket 3.1 20:23:13 10° NNW 20:28:25 36° NE 20:31:48 19° ESE
USA 276 2.0 20:25:42 10° WNW 20:28:53 85° SSW 20:30:10 33° ESE
X-37B 1.3 20:26:34 10° W 20:29:31 38° SSW 20:30:22 31° SSE
Meteor 1-18 Rocket 4.2 20:24:10 10° N 20:29:45 72° ENE 20:33:52 18° SSE
Terra 3.3 20:27:56 17° E 20:30:01 23° ENE 20:33:44 10° N
ATLAS 3B R/B 3.2 20:25:58 10° S 20:31:42 33° ESE 20:37:27 10° NE
IGS 5A 3.5 20:29:39 24° SSE 20:32:02 61° ENE 20:36:10 10° N
Cosmos 1238 Rocket 1.9 20:30:32 18° S 20:32:37 89° ENE 20:35:40 10° N
USA 234 3.9 20:29:00 11° E 20:34:58 51° NNE 20:41:15 10° NW
Cosmos 468 Rocket 4.1 20:30:40 10° NNW 20:35:59 81° WSW 20:39:42 20° SSE
CZ-2C R/B 4.3 20:31:32 10° N 20:36:02 58° WNW 20:40:26 10° SSW
Cosmos 1980 Rocket 3.6 20:32:09 10° NW 20:37:11 33° WSW 20:42:09 10° SSW
Cosmos 44 3.4 20:32:48 10° NW 20:37:44 76° NE 20:40:36 27° SE
Lacrosse 5 2.2 20:34:01 10° WNW 20:38:59 57° SW 20:41:50 25° SSE
Resurs 01 Rocket 2.3 20:34:56 11° S 20:39:03 53° W 20:43:25 10° NNW
Iridium 4 Rocket 4.4 20:38:44 21° E 20:39:15 21° E 20:42:26 10° NNE
Cosmos 1447 Rocket 4.5 20:34:12 10° N 20:40:35 81° E 20:45:25 18° SSE
Cosmos 1602 3.7 20:37:45 14° S 20:41:05 86° E 20:45:02 10° N
CARTOSAT-1 4.2 20:40:31 28° ESE 20:42:11 40° ENE 20:46:14 10° N
Cosmos 1153 Rocket 4.4 20:36:52 12° S 20:42:36 67° E 20:48:45 10° NNE
GP-B 3.3 20:40:11 10° N 20:44:38 71° W 20:48:36 13° SSW
Cosmos 1933 Rocket 3.6 20:43:09 10° SSW 20:47:34 79° W 20:52:03 10° N
Cosmos 405 Rocket 3.3 20:50:20 10° SSW 20:53:58 55° WNW 20:57:42 10° N
Spot 2 Rocket 3.5 20:51:17 24° SSE 20:54:27 84° WSW 20:59:34 10° NNW
COSMOS 2428 4.3 20:50:07 10° N 20:54:38 23° NE 20:57:48 15° E
Cosmos 1814 Rocket 4.2 20:49:29 10° NNW 20:54:40 59° ENE 20:56:56 32° SE
USA 238 DEB 4.3 20:49:54 10° WSW 20:56:27 59° NW 21:03:21 10° NE
USA 238 4.3 20:49:59 10° WSW 20:56:33 59° NW 21:03:27 10° NE
Cosmos 1802 Rocket 4.5 20:54:58 28° SE 20:57:46 43° E 21:03:41 10° NNE
Cosmos 1515 3.7 20:54:21 10° NNW 20:58:11 80° W 20:59:36 37° S
Cosmos 2237 Rocket 4.5 20:55:54 10° N 20:58:27 13° NNE 21:01:00 10° ENE
Cosmos 1869 Rocket 3.7 20:57:44 36° SSE 20:59:14 56° E 21:03:38 10° NNE
CENTAUR R/B 2.7 20:53:32 10° SW 20:59:32 80° NW 21:06:44 10° NE
Okean 1-7 2.9 20:55:43 10° N 21:00:03 86° W 21:01:51 34° S
Cosmos 1741 Rocket 4.1 20:57:21 10° SSW 21:02:36 77° WNW 21:07:56 10° NNE
Cosmos 1437 Rocket 3.1 21:02:11 10° NNW 21:05:55 59° W 21:07:19 34° SSW
OBJECT-B 3.9 21:05:45 10° WSW 21:06:44 11° W 21:07:44 10° WNW
Cosmos 1763 Rocket 4.2 21:05:04 10° NNW 21:10:12 48° WSW 21:13:13 23° SSW
Cosmos 1703 Rocket 3.9 21:06:03 10° NNW 21:10:21 60° W 21:12:20 30° SSW
H-2A R/B 4.2 21:06:47 10° N 21:10:49 52° WNW 21:14:44 11° SSW
Cosmos 1570 Rocket 4.0 21:07:23 10° NNW 21:12:45 82° WSW 21:14:58 36° SSE
Cosmos 2333 Rocket 3.3 21:07:41 10° NNW 21:12:56 34° NE 21:15:19 25° E
ATLAS 5 CENTAUR R/B 2.6 21:10:37 10° NNW 21:13:13 44° NE 21:14:58 30° E
Cosmos 2084 Rocket 4.2 21:09:38 10° WSW 21:13:45 53° NW 21:18:00 10° NE
SWARM C 4.5 21:15:13 10° N 21:18:33 78° W 21:18:41 76° SW
SWARM A 4.3 21:15:19 10° N 21:18:39 70° W 21:18:54 65° SW
SPOT 5 2.5 21:17:39 51° SSE 21:18:41 79° ENE 21:23:10 10° NNW
NOSS 5 (C) 4.5 21:16:18 10° SW 21:20:38 86° SE 21:23:58 10° NE
Meteor 1-5 Rocket 4.3 21:18:35 31° S 21:21:34 73° E 21:27:27 10° NNE
Cosmos 2208 Rocket 4.0 21:18:59 10° NNW 21:24:15 79° WSW 21:25:57 43° S
Cosmos 1733 Rocket 3.8 21:29:41 37° ENE 21:29:41 37° ENE 21:33:23 10° NNE
ERBS 4.1 21:26:46 10° NW 21:29:31 24° NNE 21:30:13 22° NE
Meteor 1-11 Rocket 3.8 21:31:46 45° SSE 21:33:18 62° E 21:39:02 10° NNE
Cosmos 968 Rocket 4.4 21:37:25 31° E 21:37:25 31° E 21:41:11 10° NE
Lacrosse 4 Rocket 1.9 21:37:37 45° ENE 21:37:37 45° ENE 21:40:47 10° NE
Tsikada Rocket 4.2 21:30:47 10° N 21:37:01 56° ENE 21:38:46 43° SE
Cosmos 2100 Rocket 4.1 21:36:57 25° SSW 21:40:39 74° W 21:46:50 10° N
GENESIS II 4.3 21:37:19 10° NNW 21:41:16 65° NE 21:41:16 65° NE
USA 267 3.1 21:35:32 10° NE 21:42:07 83° SE 21:48:41 10° SW
Meteor 2-4 Rocket 4.2 21:36:58 10° NNW 21:42:24 53° W 21:44:39 32° SSW
SL-4 R/B 2.5 21:38:51 10° WNW 21:42:35 47° N 21:42:59 44° NNE
Cosmos 2219 Rocket 2.7 21:37:23 10° NNW 21:42:54 48° NE 21:44:23 39° E
Cosmos 540 Rocket 4.1 21:37:55 10° NNW 21:42:54 48° WSW 21:44:28 36° SSW
Cosmos 2173 Rocket 4.1 21:41:11 28° SSW 21:44:38 74° W 21:50:46 10° N
SL-16 R/B 3.5 21:40:58 10° NW 21:45:56 32° WSW 21:48:19 23° SW
Cosmos 1242 Rocket 3.2 21:48:00 10° N 21:50:53 50° NNE 21:50:53 50° NNE
SAR-Lupe-2 4.3 21:50:28 10° N 21:53:57 49° WNW 21:54:04 48° W
Meteor 1-23 Rocket 4.2 21:50:18 10° N 21:56:09 72° ENE 21:57:14 57° SE
Cosmos 2322 3.6 21:50:40 10° NNW 21:56:23 81° ENE 21:57:25 60° SE
Cosmos 1725 Rocket 3.9 21:55:17 48° S 21:57:11 80° E 22:03:33 10° N
Cosmos 1459 Rocket 4.4 21:53:46 25° SSW 21:57:34 61° WNW 22:03:54 10° N
ERS-1 Rocket 3.9 21:56:14 33° SW 21:57:45 41° W 22:02:31 10° NNW
Cosmos 1833 4.1 21:58:11 41° SSW 22:00:18 87° WNW 22:06:01 10° NNE
SL-08 R/B 4.3 21:59:40 50° S 22:01:24 88° E 22:07:33 10° N
Cosmos 836 Rocket 4.5 21:56:29 10° NNW 22:01:42 67° ENE 22:02:12 63° E
Cosmos 2346 Rocket 4.5 21:55:45 10° NNW 22:01:47 73° W 22:03:31 48° SSW
Meteor 1-13 Rocket 4.5 21:56:32 10° NNW 22:01:58 59° W 22:03:24 45° SSW
Cosmos 1536 3.1 22:03:04 65° N 22:03:04 65° N 22:06:33 10° N
Cosmos 2322 Rocket 3.6 21:58:20 10° NW 22:03:08 29° WSW 22:05:04 23° SW
Cosmos 2016 Rocket 4.1 22:02:20 39° SSW 22:04:52 77° W 22:11:18 10° N
Cosmos 2221 Rocket 4.0 22:00:52 10° NNW 22:05:16 54° W 22:05:37 53° WSW
Cosmos 1378 Rocket 3.9 22:00:52 10° N 22:04:52 54° NE 22:04:52 54° NE
Terra 2.3 22:06:49 46° SW 22:07:28 50° W 22:12:07 10° NNW
Okean 3 4.4 22:04:14 10° NNW 22:08:14 39° W 22:08:38 38° WSW
COSMOS 2487 3.9 22:12:29 35° N 22:12:29 35° N 22:14:41 10° NNE
Cosmos 2333 4.1 22:05:28 10° NNW 22:11:17 80° WSW 22:12:06 66° S
Cosmos 1666 3.6 22:12:27 45° NW 22:12:27 45° NW 22:15:44 10° N
Cosmos 2360 Rocket 2.8 22:07:11 10° NW 22:12:31 43° WSW 22:13:33 39° SW
SL-16 R/B 4.4 22:10:39 10° N 22:14:15 17° NE 22:17:41 11° ENE
USA 234 3.2 22:16:21 55° SSE 22:17:50 74° SW 22:24:24 10° NW
Iridium 4 Rocket 4.2 22:18:30 33° W 22:19:03 34° W 22:22:51 10° NNW
Lacrosse 5 4.3 22:20:00 10° WSW 22:20:59 11° WSW 22:21:01 11° WSW
ATLAS 3B R/B 3.0 22:15:29 10° SW 22:22:01 62° NW 22:28:38 10° NE
Cosmos 1378 4.3 22:18:42 10° N 22:21:16 42° N 22:21:16 42° N
MOS 1-B Rocket 3.7 22:17:03 10° NNE 22:22:41 75° ESE 22:23:10 70° SE
Cosmos 1975 Rocket 4.3 22:23:52 10° N 22:27:17 32° NE 22:27:17 32° NE
Cosmos 2297 Rocket 3.9 22:32:11 19° ENE 22:32:11 19° ENE 22:34:42 10° NE
Cosmos 1743 4.0 22:35:20 39° N 22:35:20 39° N 22:37:53 10° N
Cosmos 2233 Rocket 4.0 22:34:08 61° SSW 22:35:21 83° W 22:41:44 10° N
Okean 2 4.5 22:31:33 10° N 22:34:30 39° NNE 22:34:30 39° NNE
Thor Agena Rocket 3.8 22:30:34 10° NNE 22:35:03 57° ENE 22:35:03 57° ENE
Cosmos 1980 4.2 22:30:42 10° NNW 22:36:11 47° NE 22:36:58 44° E
COSMOS 2428 2.6 22:33:49 10° NNW 22:39:34 78° WSW 22:39:48 76° SW
Cosmos 44 Rocket 3.6 22:38:33 10° NW 22:42:56 61° W 22:42:56 61° W
Cosmos 2237 Rocket 2.6 22:38:28 10° NNW 22:43:58 50° ENE 22:44:34 48° ENE
Cosmos 2219 4.5 22:46:31 28° ENE 22:46:31 28° ENE 22:49:58 10° NE
Cosmos 1271 Rocket 4.1 22:42:04 10° NNW 22:44:31 36° NW 22:44:31 36° NW
Cosmos 1464 Rocket 4.3 22:46:12 49° E 22:46:18 49° E 22:52:12 10° NNE
Cosmos 783 Rocket 4.5 22:43:08 10° NNW 22:48:13 77° NE 22:48:13 77° NE
NOSS 0 Rocket 3.8 22:44:57 10° NNW 22:51:14 82° ENE 22:51:50 73° ESE
Cosmos 2333 Rocket 2.7 22:51:52 10° NW 22:57:19 47° WSW 22:57:19 47° WSW
Geosat 4.0 22:58:12 75° NW 22:58:12 75° NW 23:02:50 10° NNW
Cosmos 1503 Rocket 4.0 22:58:15 78° NW 22:58:15 78° NW 23:03:33 10° NNE
Cosmos 1513 Rocket 4.4 23:07:07 71° ESE 23:07:28 73° E 23:13:53 10° NNE
DNEPR-1 R/B 4.2 23:08:54 10° NW 23:14:42 66° NE 23:14:42 66° NE
Lacrosse 4 Rocket 3.7 23:13:52 16° WNW 23:15:39 21° NW 23:18:53 10° N
ALOS 2 3.4 23:17:00 48° NNW 23:17:00 48° NNW 23:20:14 10° NNW
Helios 1A 4.3 23:18:09 36° NNE 23:18:09 36° NNE 23:21:08 10° N
Cosmos 773 Rocket 4.2 23:13:10 10° NNW 23:17:38 67° NNW 23:17:38 67° NNW
Cosmos 2034 Rocket 4.1 23:19:27 63° E 23:19:35 63° E 23:25:51 10° NNE
Cosmos 1072 Rocket 4.3 23:20:38 84° SW 23:20:50 87° W 23:27:00 10° N
Cosmos 2227 Rocket 3.0 23:21:59 40° ENE 23:21:59 40° ENE 23:26:14 10° NE
Cosmos 1891 Rocket 4.4 23:21:57 79° SSW 23:22:24 88° W 23:28:50 10° N
Cosmos 1707 4.5 23:19:32 10° N 23:21:46 31° NNE 23:21:46 31° NNE
USA 267 4.1 23:18:40 10° NE 23:24:53 48° NNW 23:31:05 10° W
Cosmos 2219 Rocket 3.4 23:21:42 10° NW 23:26:05 30° W 23:26:05 30° W
Cosmos 1538 Rocket 4.2 23:31:05 10° NNW 23:35:35 67° NNW 23:35:35 67° NNW
Cosmos 1607 3.9 23:40:18 10° NW 23:46:47 80° NE 23:47:26 72° ESE
Helios 1B rocket 4.4 23:52:15 10° NNE 23:54:18 23° NE 23:54:18 23° NE
